Showing default

TIANMU-1 13, 58647

Orbit data source: Space-Track

TIANMU-1 13, 58647 is a payload satellite owned by Hangtian Tianmu (CN) in SSO that was launched on Mon, 25 Dec 2023 UTC via a KUAIZHOU-1A launch vehicle from the Jiuquan Satellite Launch Center, China (JSC). Payload-class satellites include a variety of spacecraft equipped with specific instruments for various scientific and technological missions. These include communications satellites like Starlink; space stations such as the ISS; scientific satellites like the Hubble; Earth observation satellites from companies like Planet Labs, Umbra, and HawkEye 360; GPS; miniature CubeSats for education and research; and military/defense satellites.

Loading next visibility...
Identifier
58647, 2023-205C
Orbit
SSO
Country
Flag of CNCN / PRC
Related business
Manufacturer
Hangtian Tianmu
Mission
Operational Commercial Weather
Bus & Motor
TIANMU, Unknown motor
Mass
50 kg wet, ~50 kg dry
Launch date (UTC)
2023-12-25 (2 years ago)
Launch vehicle
KUAIZHOU-1A
Launch site
Jiuquan Satellite Launch Center, China (JSC)
Object type
Payload
Rocket body
Debris
Shape & HBR
Box, 0.8 m
Radar Cross Section
2.000 m², Large (>1 m²)

Expand to show TLE details & history
Last TLE update: 22 hours ago

TLE from 22 hours ago
0 TIANMU-1 13
1 58647U 23205C   26172.51256397  .00004285  00000-0  16517-3 0  9990
2 58647  97.3464 194.0296 0005433 323.2905  36.7961 15.26851187138160
Epoch: 2026-06-21T12:18Z
TLE epoch observation values (Epoch: 2026-06-21T12:18:05.527Z)
Latitude
-0.00001°
Longitude
99.79481°
Altitude
485.348 km
Speed
7.624 km/s
True Right ascension
12h 56m 07s
True Declination
0° 00' 00"
Sunlit
Object was in daylight at epoch
Visualization orbit readout
Latitude
Unknown
Longitude
Unknown
Altitude
Unknown
Speed
Unknown
Apparent Right ascension
Unknown
Apparent Declination
Unknown
Sunlit
N/A
Visualization observer readout
Local Sidereal Time
21:29:48
Azimuth
Unknown
Elevation
Unknown
Doppler factor
Unknown
Orbital elements
Apogee altitude
485.914 km
Perigee altitude
478.459 km
Semi-major axis
6,860.323 km
Eccentricity
0.00054
Inclination
97.3464°
RAAN
194.0296°
Arg. of periapsis
323.2905°
True anomaly
36.83341°
Mean anomaly
36.7961°
Eccentric anomaly
36.81475°
Mean motion
3.81967 °/min
Orbital period
94.25 mins
BSTAR
0.00016517
Loading maneuver chart data...
Computing Atmospheric mass density...
Loading historical data...
Loading historical data...
Loading historical data...
Loading historical data...
Loading historical data...
Loading historical data...
Loading historical data...
Other satellites on launch #205 in the year 2023 (2023-12-25 UTC)

Documentation

Showing up to 5 results
|